Location: ??
(35.4627°N, 139.3695°E)
Time: 08:22:09
(UTC+00:00)

Meteor PRIRODA - Pass Details

Date: 25 November 2020
Orbit: 489 x 510 km, 97.6° (Epoch: 17 January)

Event Time Altitude Azimuth Distance (km) Brightness Sun altitude
Rises 20:05:21 0° 9° (N) 2,624 7.2 -16.8°
Reaches altitude 10° 20:07:27 10° 7° (N) 1,735 6.3 -16.3°
Maximum altitude 20:11:10 70° 284° (WNW) 546 3.5 -15.6°
Drops below altitude 10° 20:14:52 10° 200° (SSW) 1,721 6.3 -14.9°
Sets 20:16:56 0° 198° (SSW) 2,601 7.2 -14.5°
